Tracking 31027 objects as of 19-Jul-2025
HD Live streaming from Space Station
objects crossing your sky now

OPS 4682 DEB

Track OPS 4682 DEB now!
10-day predictions


NORAD ID: 38410
Int'l Code: 1965-027DP
Perigee: 1,256.1 km
Apogee: 1,302.7 km
Inclination: 90.2 °
Period: 111.0 minutes
Semi major axis: 7650 km
RCS: 0.0074 m2 (small)
Launch date: April 3, 1965
Source: United States (US)
Launch site: AIR FORCE WESTERN TEST RANGE (AFWTR)

Note: This is SATELLITE DEBRIS
Your satellite tracking list
Your tracking list is empty




NASA's NSSDC Master Catalog

Two Line Element Set (TLE):
1 38410U 65027DP  25199.74815464  .00000629  00000-0  21404-2 0  9991
2 38410  90.2401   3.3717 0030478 263.4029  96.3622 12.97404786310294
Source of the keplerian elements: AFSPC